This is the latest recevied weather packets stored in our database for station/object AE5TC. If no packets are shown the sender has not sent any weather packets the latest 10 day(s).
| Time | Temp. | Humidity | Pressure | Rain* | Wind** | Luminosity | Snow |
|---|---|---|---|---|---|---|---|
| 1778085559 | 26.11° C | 84% | 1015.8 hPa | 0 mm | - | 724 W/m² | - |
| 1778085254 | 26.67° C | 82% | 1015.7 hPa | 0 mm | - | 228 W/m² | - |
| 1778084948 | 26.67° C | 83% | 1016 hPa | 0 mm | - | 265 W/m² | - |
| 1778084647 | 27.22° C | 79% | 1015.8 hPa | 0 mm | - | 352 W/m² | - |
| 1778084338 | 26.67° C | 83% | 1015.9 hPa | 0 mm | - | 880 W/m² | - |
| 1778084035 | 26.11° C | 82% | 1015.9 hPa | 0 mm | - | 536 W/m² | - |
| 1778083728 | 26.67° C | 84% | 1015.9 hPa | 0 mm | - | 189 W/m² | - |
| 1778083424 | 26.67° C | 85% | 1016.2 hPa | 0 mm | - | 315 W/m² | - |
| 1778083123 | 26.67° C | 82% | 1015.8 hPa | 0 mm | - | 295 W/m² | - |
| 1778082818 | 27.22° C | 82% | 1016 hPa | 0 mm | - | 207 W/m² | - |
| 1778081691 | 26.11° C | 83% | 1015.8 hPa | 0 mm | - | 817 W/m² | - |
| 1778081388 | 26.67° C | 83% | 1015.8 hPa | 0 mm | - | 266 W/m² | - |
| 1778081085 | 26.67° C | 85% | 1015.8 hPa | 0 mm | - | 355 W/m² | - |
| 1778080784 | 27.22° C | 83% | 1016 hPa | 0 mm | - | 783 W/m² | - |
| 1778080480 | 26.67° C | 83% | 1015.7 hPa | 0 mm | - | 722 W/m² | - |
| 1778080178 | 26.67° C | 84% | 1015.4 hPa | 0 mm | - | 435 W/m² | - |
| 1778079874 | 26.67° C | 84% | 1015.5 hPa | 0 mm | - | 305 W/m² | - |
| 1778079571 | 26.67° C | 84% | 1015.5 hPa | 0 mm | - | 447 W/m² | - |
| 1778079267 | 26.11° C | 83% | 1015.4 hPa | 0 mm | - | 696 W/m² | - |
| 1778078965 | 26.11° C | 85% | 1015.4 hPa | 0 mm | - | 227 W/m² | - |
| 1778078661 | 25.56° C | 87% | 1015.3 hPa | 0 mm | - | 210 W/m² | - |
| 1778078360 | 26.11° C | 85% | 1015.4 hPa | 0 mm | - | 221 W/m² | - |
| 1778078056 | 26.67° C | 85% | 1015.4 hPa | 0 mm | - | 393 W/m² | - |
| 1778077755 | 26.67° C | 84% | 1015.1 hPa | 0 mm | - | 607 W/m² | - |
| 1778077453 | 25.56° C | 86% | 1015.3 hPa | 0 mm | - | 674 W/m² | - |
* Rain latest hour (hover to see other rain measurements)
** Current wind speed in m/s (hover to see current wind gust speed)